• In Hungary
  • List of Countries
  • For 7 days
  • Water Temperature
  • Satellite Maps
  • Weather Map
  • News
  • Weather Widgets
  • user-avatar
    Login

    Hourly Weather Karasay

    Today, 23 October, Tuesday

    Time Temperature Precipitation Wind Pressure Humidity
    00:00 +4°C° 0 mm 1 mps 752 mmHg 60%
    01:00 +4°C° 0 mm 1 mps 751 mmHg 61%
    02:00 +4°C° 0 mm 1 mps 751 mmHg 62%
    03:00 +4°C° 0 mm 1 mps 751 mmHg 64%
    04:00 +3°C° 0 mm 1 mps 751 mmHg 68%
    05:00 +3°C° 0 mm 1 mps 750 mmHg 70%
    06:00 +3°C° 0 mm 1 mps 750 mmHg 72%
    07:00 +3°C° 0 mm 1 mps 750 mmHg 74%
    08:00 +5°C° 0 mm 1 mps 750 mmHg 68%
    09:00 +5°C° 0 mm 2 mps 750 mmHg 61%
    10:00 +7°C° 0 mm 2 mps 750 mmHg 55%
    11:00 +9°C° 0 mm 2 mps 749 mmHg 50%
    12:00 +10°C° 0 mm 3 mps 749 mmHg 45%
    13:00 +12°C° 0 mm 4 mps 748 mmHg 40%
    14:00 +12°C° 0 mm 3 mps 748 mmHg 41%
    15:00 +12°C° 0 mm 3 mps 747 mmHg 42%
    16:00 +12°C° 0 mm 3 mps 747 mmHg 43%
    17:00 +11°C° 0 mm 3 mps 746 mmHg 49%
    18:00 +11°C° 0 mm 3 mps 746 mmHg 56%
    19:00 +10°C° 0 mm 3 mps 746 mmHg 62%
    20:00 +10°C° 0 mm 4 mps 745 mmHg 63%
    21:00 +10°C° 0 mm 4 mps 745 mmHg 64%
    22:00 +9°C° 0 mm 5 mps 745 mmHg 66%
    23:00 +9°C° 0 mm 5 mps 744 mmHg 66%

    Tomorrow, 24 October, Wednesday

    Time Temperature Precipitation Wind Pressure Humidity
    00:00 +9°C° 0 mm 5 mps 744 mmHg 67%
    01:00 +9°C° 0 mm 5 mps 744 mmHg 67%
    02:00 +9°C° 0.1 mm 5 mps 744 mmHg 69%
    03:00 +9°C° 0.1 mm 6 mps 744 mmHg 72%
    04:00 +9°C° 0.1 mm 6 mps 743 mmHg 74%
    05:00 +8°C° 0.3 mm 6 mps 743 mmHg 77%
    06:00 +8°C° 0.3 mm 6 mps 743 mmHg 80%
    07:00 +8°C° 0.3 mm 6 mps 743 mmHg 83%
    08:00 +8°C° 0.1 mm 6 mps 743 mmHg 80%
    09:00 +8°C° 0.1 mm 6 mps 742 mmHg 78%
    10:00 +9°C° 0.1 mm 7 mps 742 mmHg 75%
    11:00 +9°C° 0 mm 6 mps 742 mmHg 72%
    12:00 +10°C° 0 mm 6 mps 742 mmHg 69%
    13:00 +11°C° 0 mm 6 mps 741 mmHg 66%
    14:00 +13°C° 0 mm 6 mps 741 mmHg 65%
    15:00 +13°C° 0 mm 5 mps 741 mmHg 63%
    16:00 +13°C° 0 mm 5 mps 741 mmHg 62%
    17:00 +12°C° 0 mm 4 mps 741 mmHg 63%
    18:00 +12°C° 0 mm 4 mps 741 mmHg 65%
    19:00 +11°C° 0 mm 4 mps 741 mmHg 67%
    20:00 +11°C° 0 mm 4 mps 741 mmHg 67%
    21:00 +11°C° 0 mm 4 mps 740 mmHg 67%
    22:00 +10°C° 0 mm 5 mps 740 mmHg 66%
    23:00 +9°C° 0 mm 5 mps 740 mmHg 69%

    Day after tomorrow, 25 October, Thursday

    Time Temperature Precipitation Wind Pressure Humidity
    00:00 +9°C° 0 mm 5 mps 740 mmHg 71%
    01:00 +10°C° 0 mm 4 mps 740 mmHg 74%
    02:00 +8°C° 0 mm 5 mps 740 mmHg 75%
    03:00 +8°C° 0 mm 5 mps 740 mmHg 76%
    04:00 +8°C° 0 mm 5 mps 739 mmHg 77%
    05:00 +7°C° 0 mm 5 mps 739 mmHg 77%
    06:00 +7°C° 0 mm 5 mps 739 mmHg 77%
    07:00 +7°C° 0 mm 5 mps 739 mmHg 76%
    08:00 +9°C° 0 mm 6 mps 739 mmHg 69%
    09:00 +10°C° 0 mm 7 mps 739 mmHg 62%
    10:00 +12°C° 0 mm 7 mps 738 mmHg 55%
    11:00 +15°C° 0 mm 8 mps 738 mmHg 50%
    12:00 +17°C° 0 mm 8 mps 737 mmHg 45%
    13:00 +18°C° 0 mm 9 mps 737 mmHg 40%
    14:00 +18°C° 0 mm 8 mps 737 mmHg 41%
    15:00 +18°C° 0 mm 8 mps 736 mmHg 42%
    16:00 +18°C° 0 mm 7 mps 736 mmHg 43%
    17:00 +18°C° 0 mm 8 mps 736 mmHg 42%
    18:00 +17°C° 0 mm 8 mps 735 mmHg 41%
    19:00 +16°C° 0 mm 8 mps 735 mmHg 39%
    20:00 +16°C° 0 mm 9 mps 735 mmHg 39%
    21:00 +16°C° 0 mm 9 mps 735 mmHg 39%
    22:00 +16°C° 0 mm 9 mps 734 mmHg 39%
    23:00 +16°C° 0 mm 10 mps 734 mmHg 38%

    26 October, Friday

    Time Temperature Precipitation Wind Pressure Humidity
    00:00 +16°C° 0 mm 10 mps 734 mmHg 38%
    01:00 +14°C° 0 mm 10 mps 733 mmHg 38%
    02:00 +14°C° 0 mm 10 mps 733 mmHg 38%
    03:00 +15°C° 0 mm 9 mps 732 mmHg 38%
    04:00 +15°C° 0 mm 9 mps 732 mmHg 38%
    05:00 +15°C° 0 mm 9 mps 732 mmHg 39%
    06:00 +15°C° 0 mm 9 mps 732 mmHg 39%
    07:00 +15°C° 0 mm 9 mps 732 mmHg 40%
    08:00 +15°C° 0.3 mm 8 mps 732 mmHg 47%
    09:00 +14°C° 0.3 mm 7 mps 732 mmHg 53%
    10:00 +14°C° 0.3 mm 6 mps 733 mmHg 59%
    11:00 +14°C° 0.6 mm 5 mps 733 mmHg 65%
    12:00 +13°C° 0.6 mm 5 mps 734 mmHg 70%
    13:00 +13°C° 0.6 mm 4 mps 734 mmHg 76%
    14:00 +13°C° 0 mm 4 mps 735 mmHg 72%
    15:00 +13°C° 0 mm 4 mps 735 mmHg 67%
    16:00 +13°C° 0 mm 4 mps 735 mmHg 63%
    17:00 +13°C° 0 mm 3 mps 736 mmHg 62%
    18:00 +12°C° 0 mm 3 mps 736 mmHg 61%
    19:00 +11°C° 0 mm 3 mps 737 mmHg 59%
    20:00 +11°C° 0 mm 3 mps 737 mmHg 59%
    21:00 +10°C° 0 mm 3 mps 737 mmHg 59%
    22:00 +10°C° 0 mm 3 mps 738 mmHg 59%
    23:00 +9°C° 0 mm 3 mps 738 mmHg 60%

    27 October, Saturday

    Time Temperature Precipitation Wind Pressure Humidity
    00:00 +9°C° 0 mm 3 mps 738 mmHg 61%
    01:00 +8°C° 0 mm 4 mps 738 mmHg 62%
    02:00 +7°C° 0 mm 4 mps 739 mmHg 64%
    03:00 +6°C° 0 mm 4 mps 739 mmHg 66%
    04:00 +6°C° 0 mm 4 mps 739 mmHg 68%
    05:00 +5°C° 0 mm 3 mps 740 mmHg 70%
    06:00 +5°C° 0 mm 3 mps 740 mmHg 72%
    07:00 +4°C° 0 mm 3 mps 740 mmHg 74%
    08:00 +5°C° 0 mm 3 mps 740 mmHg 69%
    09:00 +7°C° 0 mm 3 mps 741 mmHg 64%
    10:00 +6°C° 0 mm 4 mps 741 mmHg 59%
    11:00 +7°C° 0 mm 4 mps 741 mmHg 58%
    12:00 +7°C° 0 mm 4 mps 741 mmHg 57%
    13:00 +7°C° 0 mm 4 mps 741 mmHg 56%
    14:00 +7°C° 0.1 mm 4 mps 741 mmHg 57%
    15:00 +7°C° 0.1 mm 4 mps 742 mmHg 58%
    16:00 +6°C° 0.1 mm 4 mps 742 mmHg 60%
    17:00 +6°C° 0.1 mm 4 mps 742 mmHg 60%
    18:00 +5°C° 0.1 mm 4 mps 743 mmHg 61%
    19:00 +5°C° 0.1 mm 4 mps 744 mmHg 61%
    20:00 +4°C° 0 mm 4 mps 744 mmHg 62%
    21:00 +3°C° 0 mm 4 mps 745 mmHg 62%
    22:00 +3°C° 0 mm 4 mps 745 mmHg 62%
    23:00 +3°C° 0 mm 4 mps 746 mmHg 64%

    28 October, Sunday

    Time Temperature Precipitation Wind Pressure Humidity
    00:00 +1°C° 0 mm 4 mps 747 mmHg 65%
    01:00 +1°C° 0 mm 4 mps 747 mmHg 66%
    02:00 +1°C° 0 mm 4 mps 748 mmHg 70%
    03:00 +1°C° 0 mm 3 mps 748 mmHg 73%
    04:00 +1°C° 0 mm 3 mps 749 mmHg 77%
    05:00 +1°C° 0 mm 3 mps 749 mmHg 79%
    06:00 +1°C° 0 mm 3 mps 749 mmHg 80%
    07:00 0°C° 0 mm 3 mps 749 mmHg 82%
    08:00 +1°C° 0 mm 5 mps 750 mmHg 76%
    09:00 +2°C° 0 mm 6 mps 750 mmHg 69%
    10:00 +4°C° 0 mm 7 mps 750 mmHg 63%
    11:00 +5°C° 0 mm 8 mps 750 mmHg 59%
    12:00 +6°C° 0 mm 9 mps 749 mmHg 54%
    13:00 +8°C° 0 mm 10 mps 749 mmHg 50%
    14:00 +8°C° 0 mm 10 mps 748 mmHg 52%
    15:00 +8°C° 0 mm 10 mps 748 mmHg 53%
    16:00 +8°C° 0 mm 10 mps 748 mmHg 55%
    17:00 +8°C° 0.3 mm 11 mps 748 mmHg 59%
    18:00 +8°C° 0.3 mm 11 mps 748 mmHg 63%
    19:00 +8°C° 0.3 mm 12 mps 748 mmHg 67%
    20:00 +9°C° 0.2 mm 11 mps 748 mmHg 66%
    21:00 +9°C° 0.2 mm 11 mps 748 mmHg 65%
    22:00 +9°C° 0.2 mm 11 mps 748 mmHg 64%
    23:00 +9°C° 0.1 mm 11 mps 748 mmHg 64%

    29 October, Monday

    Time Temperature Precipitation Wind Pressure Humidity
    00:00 +9°C° 0.1 mm 11 mps 748 mmHg 64%
    01:00 +9°C° 0.1 mm 11 mps 748 mmHg 64%
    02:00 +9°C° 0.6 mm 10 mps 749 mmHg 69%
    03:00 +8°C° 0.6 mm 10 mps 749 mmHg 74%
    04:00 +8°C° 0.6 mm 10 mps 749 mmHg 79%
    05:00 +8°C° 0.5 mm 9 mps 750 mmHg 78%
    06:00 +9°C° 0.5 mm 8 mps 750 mmHg 78%
    07:00 +9°C° 0.5 mm 7 mps 750 mmHg 77%
    08:00 +9°C° 0.6 mm 7 mps 751 mmHg 80%
    09:00 +9°C° 0.6 mm 6 mps 751 mmHg 83%
    10:00 +9°C° 0.6 mm 6 mps 751 mmHg 86%
    11:00 +9°C° 0.1 mm 6 mps 752 mmHg 83%
    12:00 +10°C° 0.1 mm 6 mps 752 mmHg 80%
    13:00 +10°C° 0.1 mm 6 mps 752 mmHg 78%
    14:00 +10°C° 0.1 mm 5 mps 752 mmHg 78%
    15:00 +11°C° 0.1 mm 4 mps 752 mmHg 79%
    16:00 +10°C° 0.1 mm 3 mps 753 mmHg 80%
    17:00 +10°C° 0.1 mm 3 mps 753 mmHg 81%
    18:00 +9°C° 0.1 mm 2 mps 753 mmHg 82%
    19:00 +9°C° 0.1 mm 2 mps 754 mmHg 84%
    20:00 +9°C° 0.1 mm 2 mps 754 mmHg 84%
    21:00 +8°C° 0.1 mm 2 mps 754 mmHg 84%
    22:00 +8°C° 0.1 mm 2 mps 754 mmHg 85%
    23:00 +8°C° 0 mm 2 mps 754 mmHg 86%
    Show more